Home > Weather > Konya > Past weeks

Flag for Turkey Past Weather in Konya, Turkey — Yesterday and Last 2 Weeks

Now
59 °F

Passing clouds.


Feels Like: 59 °F
Forecast: 47 / 78 °F
Wind: 5 mph from North

Location: Konya Airport

Current Time: May 30, 2016 at 12:08:01 AM

Latest Report: May 29, 2016 at 10:50 PM


Visibility: N/A

Pressure: 30.07 "Hg (26.58 "Hg at 1041m altitude)

Humidity: 63%

Dew Point: 46 °F

Location of KonyaLocation

Past Weather in Konya — Graph

°F

Konya Temperature Yesterday

Maximum temperature yesterday: 72 °F (at 4:50 PM)
Minimum temperature yesterday: 52 °F (at 3:50 AM)
Average temperature yesterday: 62 °F

High & Low Weather Summary for the Past Weeks

 TemperatureHumidityPressure
High81 °F (May 17, 3:50 PM)88% (May 28, 8:50 PM)30.09 "Hg (May 28, 8:50 PM)
Low45 °F (May 20, 5:50 AM)12% (May 16, 2:50 PM)29.74 "Hg (May 25, 3:50 PM)
Average61 °F54%29.94 "Hg
* Reported May 14 9:50 PM — May 29 9:50 PM, Konya, Weather by CustomWeather, © 2016

Note: Actual official high and low records may vary slightly from our data, if they occured in-between our weather recording intervals... More about our weather records

Advertising

Konya Weather History for the Previous 24 Hours

Scroll right to see more
 ConditionsComfort  
Time TempWeatherWind HumidityBarometerVisibility
9:50 PM
Sun, May 29
63 °FPassing clouds.10 mph52%30.07 "HgN/A
8:50 PM64 °FScattered clouds.12 mph49%30.04 "HgN/A
7:50 PM66 °FScattered clouds.6 mph37%30.04 "HgN/A
6:50 PM70 °FScattered clouds.13 mph31%30.01 "HgN/A
5:50 PM72 °FScattered clouds.9 mph29%30.01 "HgN/A
4:50 PM72 °FScattered clouds.6 mph27%30.01 "HgN/A
3:50 PM70 °FScattered clouds.7 mph29%30.01 "HgN/A
2:50 PM68 °FBroken clouds.5 mph33%30.04 "HgN/A
1:50 PM68 °FBroken clouds.5 mph38%30.04 "HgN/A
12:50 PM64 °FBroken clouds.5 mph43%30.04 "HgN/A
11:50 AM64 °FScattered clouds.12 mph46%30.04 "HgN/A
10:50 AM63 °FBroken clouds.15 mph49%30.04 "HgN/A
9:50 AM63 °FBroken clouds.13 mph52%30.04 "HgN/A
8:50 AM59 °FBroken clouds.6 mph59%30.04 "HgN/A
7:50 AM57 °FBroken clouds.7 mph67%30.04 "HgN/A
6:50 AM54 °FBroken clouds.10 mph77%30.01 "HgN/A
5:50 AM54 °FPartly cloudy.6 mph82%30.01 "HgN/A
4:50 AM54 °FPartly cloudy.6 mph77%29.98 "HgN/A
3:50 AM52 °FPassing clouds.6 mph88%29.98 "HgN/A
2:50 AM54 °FPartly cloudy.7 mph77%29.98 "HgN/A
1:50 AM54 °FPartly cloudy.6 mph77%29.98 "HgN/A
12:50 AM54 °FPartly cloudy.8 mph77%30.01 "HgN/A
Weather by CustomWeather, © 2016

See weather overviewHow to use our weather pages